Regional Weather Roundup
Issued by NWS

Home | Current Version | Previous Version | Text Only | Print | Product List | Glossary On
Versions: 1 2 3 4 5 6 7 8 9 10 11 12 13 14 15 16 17 18 19 20 21 22 23 24 25 26 27 28 29 30 31 32 33 34 35 36 37 38 39 40 41 42 43 44 45 46 47 48 49 50
000
ASUS42 KKEY 312210
RWRKEY

FLORIDA REGIONAL WEATHER ROUNDUP FOR THE FLORIDA KEYS
NATIONAL WEATHER SERVICE KEY WEST FLORIDA
600 PM EDT MON AUG 31 2015

...SOUTH FLORIDA AND THE KEYS...

CITY           SKY/WX    TMP DP  RH WIND       PRES   REMARKS
FORT MYERS     HVY RAIN  80  76  87 SW6       30.01F FOG
SW REGIONAL AP LGT RAIN  81  76  84 SW6       30.02S
NAPLES         HVY RAIN  81  76  84 S8        30.02S VSB 3/4
MIAMI          MOSUNNY   88  76  67 SE9G20    30.02S HX  99
WEST KENDALL   MOSUNNY   88  74  63 S6          N/A  HX  96
HOMESTEAD      SUNNY     89  74  62 S8        30.01F HX  98
MARATHON       SUNNY     89  75  63 S5        30.02S HX  99
BOCA CHICA NAS MOSUNNY   88  72  58 S5        30.01F HX  94
KEY WEST INTL  MOSUNNY   87  73  62 S7        30.01F HX  94

...INTERNATIONAL WEATHER...

CITY           SKY/WX    TMP DP  RH WIND       PRES   REMARKS
NASSAU BAHAMAS MOSUNNY   88  73  62 SE6       30.04F HX  96
CANCUN MEXICO  CLOUDY    84  75  74 E7        29.96S HX  92
COZUMEL MEXICO CLOUDY    79  75  89 E5        29.96S

ADJACENT COASTAL WATERS...

STATION/POSITION TIME  SKY/WX   TEMP    WIND        PRES    WAVE
                                AIR SEA DIR/SP/G            HT/PER
                 (UTC)          (F)     (DEG/KT/KT) (MB)    (FT/S)
PULASKI SHOAL LI 2100                                 N/A
SAND KEY         2150            86     200/  5     1016.3F
SOMBRERO KEY     NOT AVBL
LONG KEY         2100            87 86  190/  6/  8 1017.3F
MOLASSES REEF    2200            86 87  180/  6/  7 1016.5F
FOWEY ROCKS      NOT AVBL

$$


USA.gov is the U.S. government's official web portal to all federal, state and local government web resources and services.